[[{"header":{"parameterUnit":"m.s-1","parameterCategory":2,"la1":30.2991,"la2":30.254,"lo1":-89.0895,"lo2":-89.0444,"dy":0.0017,"dx":0.0017,"nx":28,"ny":28,"refTime":"2025-06-11T21:00:00:Z","depth":"0","parameterNumber":2,"parameterNumberName":"U-component_of_CURRENTS"},"data":[0,0,0,0,0,0,0,0,0,0,0,0,0,0,0,0,0,0,0,0,0,0,0,0,0,0,0,0,0,0,0,0,0,0,0,0,0,0,0,0,0,0,0,0,0,0,0,0,0,0,0,0,0,0,0,0,0,0,0.2412,0.2412,0,0.2455,0.2455,0.2455,0.2389,0.2387,0.2385,0.2383,0.2276,0.2275,0.2273,0,0,0,0,0,0,0,0,0,0,0,0,0,0.2275,0.2277,0.2412,0.2413,0.2413,0.2455,0.2455,0.2455,0.2389,0.2387,0.2384,0.2382,0.2276,0.2275,0.2273,0,0,0,0,0,0,0,0,0,0,0,0,0,0.2323,0.2278,0.2411,0.2389,0.2387,0.2455,0.2455,0.2455,0.2389,0.2386,0.2384,0.2381,0.2276,0.2275,0.2273,0.232,0,0,0.2268,0.2267,0,0,0,0,0,0,0,0,0.2321,0.2328,0.2391,0.2391,0.2389,0.2417,0.2368,0.2404,0.239,0.2384,0.2383,0.238,0.2314,0.2309,0.2319,0.2315,0.231,0.2268,0.2267,0.2266,0.2266,0,0,0,0,0,0,0,0.2317,0.2326,0.2424,0.2393,0.2391,0.2378,0.2381,0.2374,0.2358,0.2384,0.2381,0.2394,0.2311,0.2321,0.2316,0.2309,0.2268,0.2267,0.2266,0.2265,0.2394,0.2398,0,0,0,0,0,0,0.2325,0.2323,0.2423,0.2426,0.2352,0.2383,0.2386,0.2407,0.2361,0.2354,0.2396,0.2391,0.2325,0.2318,0.2312,0.2392,0.2266,0.2265,0.2264,0.2389,0.2394,0.2399,0,0,0,0,0,0,0.2322,0.2334,0.2421,0.2378,0.2388,0.2389,0.2413,0.241,0.2419,0.2373,0.2361,0.2408,0.2323,0.2314,0.2334,0.2385,0.2264,0.2263,0.2384,0.2391,0.2397,0.2533,0,0,0,0,0,0,0.2318,0.2333,0.2354,0.2379,0.2392,0.247,0.2416,0.2413,0.2433,0.2426,0.2379,0.2366,0.232,0.2337,0.2332,0.2381,0.2261,0.2378,0.2387,0.2395,0.2523,0.2543,0.2561,0,0,0,0,0,0.2313,0.2352,0.2355,0.2368,0.242,0.2472,0.2478,0.2463,0.2437,0.2457,0.2438,0.2368,0.2386,0.234,0.2333,0.2381,0.2374,0.2385,0.2394,0.2514,0.2539,0.256,0,0,0,0,0,0,0.2302,0.2351,0.2354,0.2405,0.2442,0.2462,0.2486,0.248,0.2486,0.2474,0.2417,0.2406,0.2447,0.2411,0.2361,0.2451,0.2372,0.2381,0.2466,0.2489,0.2508,0.253,0.226,0,0,0,0,0,0.2316,0.2355,0.2399,0.2441,0.2465,0.2481,0.2501,0.2498,0.2508,0.2506,0.2481,0.2471,0.2489,0.2483,0.2486,0.2528,0.2602,0.2563,0.2582,0.2598,0.2618,0.2855,0.2899,0.2432,0.2432,0.2431,0,0,0.2322,0.2357,0.2378,0.2442,0.2467,0.2509,0.2484,0.2528,0.2559,0.2496,0.2527,0.2534,0.252,0.2573,0.2588,0.2541,0.2767,0.261,0.2623,0.2635,0.2871,0.2917,0.2957,0.2438,0.2437,0.2436,0,0,0.2358,0.2392,0.2436,0.2471,0.2526,0.2542,0.256,0.2597,0.261,0.2652,0.2635,0.2695,0.2675,0.2715,0.2721,0.2857,0.2867,0.2842,0.2941,0.3173,0.3214,0.3251,0.3388,0.3436,0.2843,0.2844,0.2844,0,0.2362,0.2422,0.2457,0.2506,0.2538,0.2559,0.2607,0.2638,0.2674,0.2717,0.267,0.2778,0.2756,0.2877,0.2915,0.29,0.3006,0.2845,0.3201,0.3239,0.3275,0.3407,0.3458,0.2851,0.285,0.285,0.2849,0,0.2426,0.2471,0.2504,0.2568,0.2611,0.2659,0.2708,0.2752,0.2763,0.2805,0.2927,0.2952,0.3018,0.3033,0.2996,0.3234,0.3218,0.3206,0.3142,0.3331,0.3456,0.3508,0.2862,0.286,0.2857,0.2855,0,0,0.244,0.2529,0.2539,0.258,0.2645,0.2694,0.276,0.2852,0.2946,0.2984,0.3127,0.3179,0.3222,0.324,0.3253,0.3434,0.3753,0.3422,0.3431,0.3555,0.4234,0.4138,0.4183,0.3825,0.3835,0.3843,0.4215,0,0.2477,0.2566,0.2603,0.2688,0.274,0.2783,0.2864,0.2951,0.303,0.3177,0.3256,0.339,0.3294,0.3373,0.3536,0.3707,0.3898,0.365,0.4035,0.4044,0.3937,0.4244,0.4138,0.4456,0.4265,0.4273,0.4279,0,0.2524,0.2581,0.2668,0.2774,0.2807,0.2865,0.3021,0.3098,0.3289,0.3369,0.3507,0.3579,0.3795,0.3728,0.4107,0.3959,0.4111,0.424,0.4258,0.4158,0.4047,0.4243,0.4556,0.4416,0.4358,0.4351,0.4346,0,0.2528,0.2626,0.2697,0.2729,0.2856,0.2919,0.2991,0.3163,0.3261,0.3527,0.3636,0.388,0.4014,0.427,0.4404,0.4332,0.4844,0.478,0.4839,0.4828,0.4807,0.4778,0.503,0.5137,0.5136,0.5135,0.5134,0,0.256,0.2625,0.2711,0.2758,0.2877,0.2957,0.3115,0.3236,0.3435,0.3602,0.374,0.3918,0.4175,0.4415,0.4563,0.4833,0.4971,0.4938,0.4974,0.4843,0.4815,0.4735,0.4657,0.5149,0.5145,0.5143,0.514,0,0.2602,0.2632,0.2731,0.2851,0.2884,0.2986,0.3127,0.3275,0.3437,0.3667,0.3757,0.4024,0.4355,0.4555,0.4994,0.5017,0.52,0.5365,0.5126,0.5127,0.5008,0.494,0.5078,0.4927,0.5557,0.5557,0.5558,0,0.2644,0.27,0.2795,0.2855,0.292,0.3037,0.3145,0.328,0.3432,0.3717,0.3861,0.4188,0.44,0.4908,0.5135,0.5442,0.5266,0.5471,0.5321,0.5066,0.5022,0.4776,0.4617,0.5351,0.535,0.5349,0.5348,0,0.2765,0.2791,0.2874,0.2969,0.3064,0.3127,0.3272,0.3343,0.3542,0.3697,0.394,0.4116,0.458,0.4856,0.5205,0.5366,0.5218,0.5457,0.5341,0.503,0.4649,0.4492,0.4951,0.534,0.534,0.5341,0.5342,0.5342,0.2879,0.2944,0.3029,0.3107,0.3173,0.3202,0.3216,0.3362,0.3481,0.3655,0.3899,0.4102,0.4569,0.5054,0.5165,0.5279,0.519,0.5211,0.52,0.5006,0.4719,0.5089,0.5398,0.5399,0.54,0.5401,0.5401,0,0.3025,0.3068,0.3165,0.3196,0.3207,0.3228,0.3299,0.328,0.3337,0.3576,0.3718,0.4135,0.4469,0.4808,0.5143,0.5053,0.4826,0.4936,0.4613,0.4504,0.5028,0.4868,0.4897,0.4897,0.4898,0.4898,0.4898,0.4898,0.3119,0.3203,0.32,0.3189,0.3186,0.313,0.3104,0.3084,0.3186,0.3323,0.3508,0.3741,0.4285,0.4822,0.4919,0.4835,0.4487,0.4359,0.4254,0.466,0.4681,0.4702,0.4534,0.4493,0.4493,0.3557,0.3551,0.3546]},{"header":{"parameterUnit":"m.s-1","parameterCategory":2,"la1":30.2991,"la2":30.254,"lo1":-89.0895,"lo2":-89.0444,"dy":0.0017,"dx":0.0017,"nx":28,"ny":28,"refTime":"2025-06-11T21:00:00:Z","depth":"0","parameterNumber":3,"parameterNumberName":"V-component_of_CURRENTS"},"data":[0,0,0,0,0,0,0,0,0,0,0,0,0,0,0,0,0,0,0,0,0,0,0,0,0,0,0,0,0,0,0,0,0,0,0,0,0,0,0,0,0,0,0,0,0,0,0,0,0,0,0,0,0,0,0,0,0,0,-0.0361,-0.0362,0,-0.0431,-0.0432,-0.0432,-0.0461,-0.0461,-0.0461,-0.0461,-0.0434,-0.0434,-0.0433,0,0,0,0,0,0,0,0,0,0,0,0,0,-0.0244,-0.0246,-0.0361,-0.0362,-0.0363,-0.0431,-0.0432,-0.0432,-0.0461,-0.0461,-0.0461,-0.0461,-0.0435,-0.0434,-0.0433,0,0,0,0,0,0,0,0,0,0,0,0,0,-0.0301,-0.0247,-0.0361,-0.0387,-0.039,-0.0431,-0.0432,-0.0433,-0.0461,-0.0461,-0.0461,-0.0461,-0.0435,-0.0434,-0.0433,-0.0426,0,0,-0.043,-0.0429,0,0,0,0,0,0,0,0,-0.0298,-0.0305,-0.0382,-0.0385,-0.0389,-0.0439,-0.0381,-0.0426,-0.0461,-0.0433,-0.0461,-0.0461,-0.0428,-0.0427,-0.044,-0.0425,-0.0424,-0.043,-0.0429,-0.0428,-0.0428,0,0,0,0,0,0,0,-0.0294,-0.0303,-0.0387,-0.0383,-0.0387,-0.0392,-0.04,-0.039,-0.0427,-0.0435,-0.0438,-0.0448,-0.0429,-0.0441,-0.0439,-0.0424,-0.043,-0.0429,-0.0428,-0.0428,-0.0406,-0.0406,0,0,0,0,0,0,-0.0289,-0.0299,-0.0385,-0.039,-0.0344,-0.0394,-0.0403,-0.0422,-0.0429,-0.0431,-0.0448,-0.0449,-0.0443,-0.044,-0.0438,-0.04,-0.0428,-0.0427,-0.0427,-0.0406,-0.0406,-0.0407,0,0,0,0,0,0,-0.0287,-0.0297,-0.0383,-0.0346,-0.0358,-0.0397,-0.0417,-0.0423,-0.0438,-0.044,-0.044,-0.0457,-0.0443,-0.044,-0.0438,-0.04,-0.0427,-0.0426,-0.0406,-0.0406,-0.0406,-0.0342,0,0,0,0,0,0,-0.0283,-0.0295,-0.0304,-0.0346,-0.036,-0.0408,-0.0417,-0.0424,-0.0445,-0.0447,-0.0447,-0.0445,-0.0442,-0.044,-0.0437,-0.0399,-0.0425,-0.0406,-0.0406,-0.0406,-0.0344,-0.034,-0.0336,0,0,0,0,0,-0.0279,-0.029,-0.0304,-0.0314,-0.0372,-0.0408,-0.0415,-0.0441,-0.0445,-0.0453,-0.0457,-0.0445,-0.0439,-0.044,-0.0436,-0.0396,-0.0406,-0.0406,-0.0406,-0.0346,-0.034,-0.0336,0,0,0,0,0,0,-0.0236,-0.0295,-0.0311,-0.0338,-0.0372,-0.0414,-0.0423,-0.0441,-0.0453,-0.045,-0.045,-0.0448,-0.0435,-0.0435,-0.0436,-0.0396,-0.0418,-0.0418,-0.0373,-0.0368,-0.0365,-0.026,-0.0424,0,0,0,0,0,-0.0233,-0.0261,-0.0311,-0.033,-0.0347,-0.0385,-0.0401,-0.042,-0.044,-0.0446,-0.045,-0.0446,-0.0433,-0.0418,-0.0422,-0.0394,-0.0324,-0.0369,-0.0365,-0.0361,-0.0277,-0.0139,-0.0111,-0.0407,-0.0407,-0.0407,0,0,-0.0219,-0.0257,-0.027,-0.0324,-0.035,-0.0366,-0.0394,-0.042,-0.0414,-0.0437,-0.0429,-0.044,-0.0431,-0.0407,-0.0398,-0.0397,-0.026,-0.0361,-0.0358,-0.0273,-0.0135,-0.0105,-0.0078,-0.0407,-0.0407,-0.0407,0,0,-0.0209,-0.0242,-0.0263,-0.029,-0.0335,-0.0353,-0.036,-0.0403,-0.0402,-0.0412,-0.0414,-0.0378,-0.0406,-0.0348,-0.033,-0.03,-0.0257,-0.0341,-0.0209,-0.0079,-0.0051,-0.0025,0.0035,0.0066,-0.0321,-0.0321,-0.0321,0,-0.0187,-0.0219,-0.0271,-0.0295,-0.0291,-0.0344,-0.0336,-0.0354,-0.0387,-0.032,-0.0404,-0.0326,-0.0349,-0.0216,-0.0229,-0.0275,-0.0228,-0.0227,-0.0064,-0.0037,-0.0011,0.0045,0.0079,-0.0318,-0.0319,-0.0319,-0.0319,0,-0.0197,-0.0213,-0.0223,-0.0262,-0.0267,-0.0272,-0.0294,-0.0271,-0.0283,-0.0261,-0.0168,-0.0202,-0.0116,-0.0155,-0.0191,-0.0016,-0.0056,-0.0086,-0.0058,0.0025,0.0074,0.0108,-0.0314,-0.0315,-0.0316,-0.0317,0,0,-0.0158,-0.0215,-0.0216,-0.0181,-0.0237,-0.0211,-0.0185,-0.0109,0.0021,-0.0047,0.0126,0.0095,0.0119,0.0142,0.011,0.0204,0.0357,0.0135,0.014,0.0229,0.0607,0.0515,0.0543,0.0353,0.0361,0.0367,0.0546,0,-0.0137,-0.0133,-0.0177,-0.0118,-0.0092,-0.0087,-0.0021,0.0052,0.0108,0.0251,0.027,0.038,0.0214,0.028,0.0339,0.0382,0.0461,0.031,0.049,0.0496,0.0435,0.0587,0.048,0.0629,0.0579,0.0585,0.0589,0,-0.0123,-0.0106,-0.0055,0.0048,0.0068,0.0108,0.0321,0.0371,0.0546,0.0601,0.0709,0.071,0.0836,0.0667,0.0807,0.0712,0.068,0.0677,0.0684,0.0631,0.0473,0.0549,0.0693,0.0349,0.0642,0.0638,0.0634,0,-0.0007,0.0005,0.0081,0.0094,0.0172,0.0273,0.0349,0.052,0.067,0.0866,0.1011,0.1095,0.1195,0.1181,0.1087,0.0987,0.1235,0.1099,0.0987,0.0976,0.095,0.0924,0.0833,0.1241,0.124,0.124,0.1239,0,0.0063,0.0145,0.016,0.0218,0.0409,0.0419,0.0674,0.0782,0.0995,0.1243,0.1215,0.142,0.1339,0.1414,0.1267,0.1248,0.1376,0.1092,0.1067,0.0951,0.0925,0.0672,0.0495,0.1246,0.1245,0.1244,0.1243,0,0.0226,0.0187,0.0321,0.042,0.0466,0.0634,0.085,0.1068,0.1215,0.1541,0.1618,0.1758,0.1851,0.1725,0.1754,0.1528,0.1305,0.1432,0.1256,0.1206,0.0725,0.0556,0.0615,0.0424,0.137,0.1369,0.1369,0,0.0333,0.039,0.0503,0.0603,0.0665,0.0866,0.1034,0.1184,0.1416,0.1755,0.1955,0.2119,0.226,0.2212,0.1884,0.167,0.1362,0.1388,0.1183,0.0763,0.0558,0.0468,0.0293,0.1139,0.1137,0.1135,0.1133,0,0.0579,0.0591,0.0699,0.0877,0.1038,0.1228,0.1465,0.1651,0.1876,0.2118,0.2459,0.2595,0.252,0.2306,0.1956,0.1717,0.1098,0.1341,0.1006,0.0492,0.0306,0.0083,0.0885,0.1117,0.1119,0.112,0.1121,0.1122,0.08,0.0919,0.1018,0.1201,0.1366,0.1588,0.1768,0.2009,0.2321,0.2687,0.2797,0.3032,0.264,0.2162,0.1772,0.0937,0.1004,0.0648,0.0516,0.0493,0.021,0.094,0.1064,0.1065,0.1066,0.1067,0.1068,0,0.1061,0.1154,0.1343,0.1529,0.1731,0.1761,0.2067,0.2245,0.2568,0.2903,0.3157,0.3124,0.2499,0.1856,0.0797,0.0213,-0.0035,-0.0116,-0.0302,-0.0417,0.0328,0.0203,0.0025,0.0025,0.0025,0.0026,0.0026,0.0026,0.1218,0.1415,0.1473,0.1805,0.1939,0.2206,0.236,0.2598,0.2855,0.3223,0.3404,0.3536,0.3067,0.1137,-0.0231,-0.0582,-0.1042,-0.1057,-0.1254,-0.0846,-0.0787,-0.0732,-0.0893,-0.1298,-0.13,-0.2003,-0.201,-0.2016]}],[{"header":{"parameterUnit":"m.s-1","parameterCategory":2,"la1":30.2991,"la2":30.254,"lo1":-89.0895,"lo2":-89.0444,"dy":0.0017,"dx":0.0017,"nx":28,"ny":28,"refTime":"2025-06-11T21:00:00:Z","depth":"2","parameterNumber":2,"parameterNumberName":"U-component_of_CURRENTS"},"data":[0,0,0,0,0,0,0,0,0,0,0,0,0,0,0,0,0,0,0,0,0,0,0,0,0,0,0,0,0,0,0,0,0,0,0,0,0,0,0,0,0,0,0,0,0,0,0,0,0,0,0,0,0,0,0,0,0,0,0.208,0.208,0,0.2109,0.2109,0.2109,0.2086,0.2085,0.2084,0.2084,0.204,0.2039,0.2039,0,0,0,0,0,0,0,0,0,0,0,0,0,0.1986,0.1988,0.208,0.2081,0.2081,0.2109,0.2109,0.2109,0.2086,0.2085,0.2084,0.2083,0.204,0.2039,0.2038,0,0,0,0,0,0,0,0,0,0,0,0,0,0.2019,0.1989,0.208,0.2076,0.2076,0.2109,0.2109,0.2109,0.2086,0.2085,0.2084,0.2083,0.204,0.2039,0.2038,0.2052,0,0,0.2036,0.2035,0,0,0,0,0,0,0,0,0.2017,0.2022,0.2076,0.2076,0.2077,0.2096,0.206,0.2088,0.2086,0.2078,0.2084,0.2083,0.2055,0.2053,0.2056,0.205,0.2048,0.2036,0.2035,0.2035,0.2034,0,0,0,0,0,0,0,0.2015,0.202,0.2087,0.2077,0.2077,0.2067,0.207,0.2065,0.2067,0.2079,0.2078,0.2088,0.2054,0.2057,0.2055,0.2047,0.2036,0.2035,0.2034,0.2034,0.2106,0.2109,0,0,0,0,0,0,0.2022,0.2019,0.2087,0.2089,0.2048,0.207,0.2073,0.2088,0.2069,0.2067,0.2089,0.2087,0.2059,0.2056,0.2053,0.2114,0.2035,0.2034,0.2033,0.2104,0.2107,0.211,0,0,0,0,0,0,0.2019,0.2027,0.2085,0.2057,0.2064,0.2073,0.2089,0.2089,0.2101,0.2078,0.2073,0.2103,0.2058,0.2054,0.2067,0.211,0.2034,0.2033,0.2101,0.2105,0.2108,0.2207,0,0,0,0,0,0,0.2017,0.2027,0.2042,0.2058,0.2066,0.2124,0.209,0.209,0.211,0.2108,0.2089,0.2083,0.2057,0.2069,0.2066,0.2108,0.2032,0.2098,0.2103,0.2107,0.2201,0.2214,0.2225,0,0,0,0,0,0.2013,0.2037,0.2042,0.2051,0.2086,0.2126,0.2129,0.2129,0.2112,0.2133,0.2118,0.2084,0.2097,0.207,0.2067,0.2109,0.2096,0.2102,0.2107,0.2196,0.2212,0.2225,0,0,0,0,0,0,0.2,0.2038,0.2044,0.2077,0.2109,0.2123,0.2143,0.2142,0.2147,0.214,0.2108,0.2103,0.2134,0.2111,0.2083,0.2146,0.2094,0.2099,0.2163,0.2178,0.2189,0.2206,0.2031,0,0,0,0,0,0.2008,0.2037,0.2072,0.21,0.2121,0.2135,0.2151,0.2155,0.2162,0.2163,0.2152,0.2145,0.2155,0.2156,0.2157,0.2186,0.2209,0.2215,0.2227,0.2237,0.2251,0.2396,0.2423,0.2128,0.2128,0.2128,0,0,0.2006,0.2035,0.2048,0.21,0.2121,0.2159,0.2141,0.2177,0.2202,0.2157,0.2186,0.2185,0.2173,0.2209,0.2222,0.2194,0.232,0.2244,0.2253,0.2261,0.2405,0.2434,0.246,0.2132,0.2131,0.213,0,0,0.2024,0.2052,0.2084,0.212,0.2168,0.2183,0.22,0.2231,0.2242,0.2275,0.2255,0.2285,0.2286,0.2299,0.2301,0.2382,0.2381,0.2384,0.2456,0.2597,0.2623,0.2647,0.2653,0.2677,0.2389,0.2389,0.239,0,0.2018,0.2068,0.21,0.2145,0.2174,0.2199,0.2238,0.2262,0.2291,0.2318,0.2295,0.2373,0.2333,0.2418,0.2423,0.2409,0.2458,0.2398,0.2616,0.264,0.2663,0.2664,0.2689,0.2395,0.2394,0.2394,0.2393,0,0.2063,0.2105,0.2131,0.2194,0.2232,0.2273,0.2316,0.2356,0.2371,0.2398,0.2493,0.2494,0.2557,0.254,0.2486,0.2631,0.2598,0.2618,0.2582,0.2699,0.2691,0.2715,0.2403,0.2401,0.2399,0.2398,0,0,0.2037,0.214,0.2148,0.2188,0.2261,0.2297,0.2359,0.243,0.249,0.2547,0.2652,0.2665,0.2715,0.2722,0.2716,0.279,0.2923,0.2765,0.277,0.2772,0.3171,0.3066,0.3081,0.3018,0.3024,0.3029,0.3079,0,0.2059,0.2142,0.2189,0.2265,0.2312,0.2366,0.2428,0.2496,0.2555,0.2663,0.2732,0.2813,0.278,0.2823,0.2923,0.2934,0.3003,0.2902,0.3056,0.3057,0.2956,0.3113,0.2891,0.2915,0.3103,0.3107,0.3109,0,0.2084,0.214,0.2216,0.2317,0.2344,0.2399,0.2517,0.2578,0.2723,0.278,0.2933,0.2986,0.3114,0.307,0.3245,0.3201,0.3197,0.3189,0.3194,0.3087,0.3002,0.2842,0.2952,0.3149,0.3146,0.3143,0.314,0,0.205,0.2155,0.2215,0.2249,0.2368,0.2425,0.2495,0.262,0.2696,0.2878,0.2963,0.3165,0.3258,0.3377,0.336,0.3341,0.3513,0.3495,0.3392,0.3379,0.3211,0.3174,0.3633,0.3633,0.3632,0.3632,0.3632,0,0.2054,0.2102,0.2214,0.2252,0.2348,0.243,0.2554,0.2645,0.2808,0.2924,0.3052,0.3188,0.335,0.3453,0.3453,0.3501,0.3623,0.3434,0.3432,0.3227,0.3193,0.3418,0.3392,0.3634,0.3634,0.3633,0.3633,0,0.2015,0.2081,0.2164,0.2293,0.234,0.2414,0.2582,0.2662,0.2815,0.2986,0.3048,0.3245,0.3394,0.348,0.361,0.3585,0.3628,0.3589,0.3261,0.3222,0.3361,0.3339,0.3535,0.3533,0.3531,0.353,0.3528,0,0.2009,0.2046,0.2182,0.2228,0.2294,0.2417,0.2491,0.2659,0.2745,0.3007,0.3076,0.3268,0.3404,0.3543,0.3522,0.3544,0.3595,0.3299,0.3236,0.3396,0.3374,0.3356,0.3338,0.3009,0.3003,0.2999,0.2995,0,0.1984,0.2031,0.2084,0.2178,0.2262,0.2367,0.2491,0.2563,0.276,0.2909,0.3091,0.3224,0.3373,0.3331,0.3332,0.3304,0.3297,0.3207,0.3556,0.3066,0.2906,0.2881,0.288,0.2956,0.296,0.2962,0.2965,0.2966,0.1944,0.1965,0.2016,0.2097,0.2191,0.2267,0.2318,0.2447,0.2582,0.2709,0.2901,0.2982,0.3078,0.2981,0.2935,0.289,0.3096,0.2967,0.298,0.2997,0.2927,0.2774,0.2776,0.2779,0.2782,0.2784,0.2786,0,0.1848,0.187,0.1928,0.1997,0.2041,0.2151,0.2264,0.228,0.238,0.2493,0.2584,0.2403,0.2436,0.2555,0.2451,0.2467,0.2424,0.2377,0.2318,0.2361,0.2399,0.2296,0.1979,0.1976,0.1973,0.197,0,0,0.1784,0.1759,0.1778,0.1799,0.188,0.1918,0.1965,0.2014,0.2081,0.2036,0.2033,0.2132,0.2421,0.2078,0.2111,0.2048,0.2163,0.1969,0.2627,0.2598,0.2631,0.2768,0.2662,0,0,0,0,0]},{"header":{"parameterUnit":"m.s-1","parameterCategory":2,"la1":30.2991,"la2":30.254,"lo1":-89.0895,"lo2":-89.0444,"dy":0.0017,"dx":0.0017,"nx":28,"ny":28,"refTime":"2025-06-11T21:00:00:Z","depth":"2","parameterNumber":3,"parameterNumberName":"V-component_of_CURRENTS"},"data":[0,0,0,0,0,0,0,0,0,0,0,0,0,0,0,0,0,0,0,0,0,0,0,0,0,0,0,0,0,0,0,0,0,0,0,0,0,0,0,0,0,0,0,0,0,0,0,0,0,0,0,0,0,0,0,0,0,0,-0.0626,-0.0627,0,-0.0698,-0.0698,-0.0699,-0.0749,-0.0749,-0.075,-0.075,-0.0802,-0.0803,-0.0804,0,0,0,0,0,0,0,0,0,0,0,0,0,-0.0585,-0.0585,-0.0626,-0.0627,-0.0628,-0.0697,-0.0698,-0.0699,-0.0749,-0.0749,-0.075,-0.075,-0.0802,-0.0803,-0.0804,0,0,0,0,0,0,0,0,0,0,0,0,0,-0.0624,-0.0585,-0.0626,-0.0661,-0.0665,-0.0697,-0.0698,-0.07,-0.0749,-0.0749,-0.075,-0.075,-0.0801,-0.0803,-0.0805,-0.0803,0,0,-0.0809,-0.081,0,0,0,0,0,0,0,0,-0.0622,-0.0626,-0.0655,-0.0658,-0.0663,-0.0715,-0.0703,-0.0733,-0.0749,-0.0717,-0.075,-0.0751,-0.0771,-0.0775,-0.0788,-0.0806,-0.0808,-0.0809,-0.081,-0.0811,-0.0812,0,0,0,0,0,0,0,-0.0619,-0.0623,-0.0655,-0.0656,-0.0661,-0.0691,-0.0697,-0.071,-0.074,-0.072,-0.0724,-0.0731,-0.0773,-0.0786,-0.0789,-0.0809,-0.0809,-0.0811,-0.0812,-0.0812,-0.085,-0.085,0,0,0,0,0,0,-0.0607,-0.062,-0.0652,-0.0657,-0.0643,-0.0691,-0.0697,-0.0698,-0.074,-0.0747,-0.073,-0.0733,-0.0783,-0.0787,-0.0791,-0.0818,-0.0811,-0.0813,-0.0813,-0.085,-0.085,-0.085,0,0,0,0,0,0,-0.0605,-0.0608,-0.0649,-0.0641,-0.0648,-0.0691,-0.0691,-0.0699,-0.0721,-0.0748,-0.0755,-0.0746,-0.0784,-0.0789,-0.0809,-0.0819,-0.0813,-0.0815,-0.085,-0.085,-0.085,-0.0855,0,0,0,0,0,0,-0.0604,-0.0607,-0.0607,-0.0639,-0.0648,-0.0664,-0.0691,-0.07,-0.0724,-0.0729,-0.0763,-0.0768,-0.0784,-0.0806,-0.081,-0.0821,-0.0816,-0.085,-0.085,-0.085,-0.0854,-0.0855,-0.0855,0,0,0,0,0,-0.0602,-0.0589,-0.0607,-0.0611,-0.0645,-0.0663,-0.067,-0.0703,-0.0724,-0.0727,-0.0757,-0.0768,-0.081,-0.0807,-0.0812,-0.0824,-0.085,-0.085,-0.085,-0.0854,-0.0855,-0.0855,0,0,0,0,0,0,-0.0568,-0.0594,-0.0614,-0.061,-0.0636,-0.0672,-0.0678,-0.0705,-0.0732,-0.0739,-0.0769,-0.0776,-0.0798,-0.0805,-0.0803,-0.0833,-0.0831,-0.0832,-0.0833,-0.0833,-0.0834,-0.0826,-0.0817,0,0,0,0,0,-0.0561,-0.0562,-0.0594,-0.0593,-0.0603,-0.0644,-0.0659,-0.0682,-0.0709,-0.0723,-0.0753,-0.0779,-0.0801,-0.0812,-0.0829,-0.0844,-0.0855,-0.0854,-0.0854,-0.0854,-0.085,-0.081,-0.0806,-0.085,-0.085,-0.085,0,0,-0.0548,-0.0563,-0.0565,-0.0587,-0.0611,-0.0619,-0.0654,-0.0671,-0.0689,-0.0722,-0.0755,-0.0782,-0.0804,-0.0826,-0.0836,-0.0835,-0.0869,-0.0854,-0.0855,-0.0851,-0.081,-0.0805,-0.0801,-0.085,-0.085,-0.085,0,0,-0.0518,-0.0536,-0.0528,-0.0546,-0.0578,-0.0602,-0.0607,-0.0649,-0.0678,-0.0709,-0.0741,-0.0777,-0.0806,-0.0834,-0.0848,-0.0858,-0.087,-0.0859,-0.0857,-0.0818,-0.0814,-0.081,-0.0908,-0.0913,-0.0859,-0.0859,-0.0859,0,-0.0504,-0.0502,-0.0529,-0.0528,-0.0545,-0.0592,-0.0594,-0.0624,-0.0672,-0.0699,-0.0715,-0.077,-0.0812,-0.083,-0.0854,-0.0862,-0.087,-0.0856,-0.0817,-0.0813,-0.0809,-0.091,-0.0914,-0.0859,-0.0859,-0.0859,-0.0859,0,-0.0469,-0.0476,-0.0472,-0.0491,-0.0508,-0.0517,-0.0561,-0.0589,-0.0635,-0.0675,-0.0711,-0.0756,-0.0777,-0.0813,-0.085,-0.0846,-0.088,-0.0822,-0.0814,-0.0804,-0.0913,-0.0918,-0.086,-0.086,-0.086,-0.086,0,0,-0.0427,-0.0445,-0.0449,-0.0458,-0.0494,-0.0504,-0.0532,-0.0576,-0.0593,-0.0647,-0.0657,-0.0741,-0.0754,-0.0771,-0.0803,-0.0811,-0.0856,-0.081,-0.0808,-0.0909,-0.0854,-0.0787,-0.0788,-0.0759,-0.0758,-0.0756,-0.0976,0,-0.0402,-0.0394,-0.0414,-0.0419,-0.0424,-0.0472,-0.0488,-0.0534,-0.0581,-0.0599,-0.0655,-0.0674,-0.0733,-0.0738,-0.0746,-0.0788,-0.0852,-0.0809,-0.0848,-0.0853,-0.0789,-0.0782,-0.0733,-0.091,-0.0981,-0.0982,-0.0982,0,-0.0374,-0.0375,-0.0372,-0.0394,-0.0399,-0.0404,-0.0444,-0.0464,-0.0508,-0.0531,-0.0547,-0.058,-0.0618,-0.0645,-0.0722,-0.0673,-0.0783,-0.0847,-0.0854,-0.0778,-0.0788,-0.0912,-0.0916,-0.0991,-0.099,-0.0989,-0.0989,0,-0.0348,-0.0354,-0.0354,-0.0362,-0.0383,-0.0392,-0.0405,-0.0451,-0.0456,-0.0475,-0.0467,-0.0494,-0.0503,-0.0558,-0.0715,-0.0694,-0.0815,-0.0787,-0.0873,-0.0877,-0.0837,-0.0835,-0.088,-0.088,-0.088,-0.0879,-0.0878,0,-0.0325,-0.0332,-0.0338,-0.0338,-0.0326,-0.0356,-0.0345,-0.0368,-0.0364,-0.0336,-0.0406,-0.0379,-0.0468,-0.0552,-0.0679,-0.0783,-0.078,-0.0884,-0.089,-0.0849,-0.0844,-0.0885,-0.0883,-0.0887,-0.0885,-0.0884,-0.0882,0,-0.0315,-0.0318,-0.0316,-0.0321,-0.0314,-0.0309,-0.0286,-0.0272,-0.0281,-0.023,-0.0224,-0.0293,-0.0353,-0.0513,-0.0655,-0.0744,-0.0857,-0.0937,-0.0954,-0.0952,-0.0986,-0.0981,-0.1008,-0.1007,-0.1006,-0.1005,-0.1004,0,-0.0318,-0.0314,-0.0296,-0.0276,-0.0277,-0.0256,-0.0229,-0.0222,-0.0186,-0.0166,-0.0124,-0.0204,-0.0173,-0.0389,-0.0586,-0.079,-0.0869,-0.0934,-0.0852,-0.0976,-0.0981,-0.0979,-0.0976,-0.089,-0.0889,-0.0887,-0.0886,0,-0.0328,-0.032,-0.0309,-0.0249,-0.0214,-0.0159,-0.0112,-0.0047,-0.0012,0.0073,0.0167,0.0196,-0.0031,-0.0161,-0.0492,-0.0638,-0.0853,-0.0905,-0.0998,-0.0811,-0.0864,-0.0869,-0.0871,-0.0874,-0.0875,-0.0876,-0.0876,-0.0877,-0.0342,-0.0324,-0.0286,-0.0219,-0.0164,-0.0045,0.0066,0.0165,0.032,0.0503,0.0439,0.0534,0.0212,-0.0068,-0.0378,-0.0727,-0.0728,-0.0838,-0.0844,-0.085,-0.0741,-0.0781,-0.0769,-0.0769,-0.077,-0.077,-0.0771,0,-0.0332,-0.0299,-0.0252,-0.0139,-0.0021,-0.0009,0.0162,0.0341,0.062,0.0732,0.0887,0.069,0.0477,0.0097,-0.0378,-0.0657,-0.0713,-0.0752,-0.0773,-0.0783,-0.0792,-0.0681,-0.0693,-0.0693,-0.0694,-0.0694,0,0,-0.0334,-0.0265,-0.0213,-0.001,0.0081,0.0296,0.044,0.0715,0.0877,0.1097,0.1145,0.1121,0.063,0.0314,-0.012,-0.0398,-0.0513,-0.0447,-0.048,-0.0462,-0.0467,-0.0815,-0.065,0,0,0,0,0]}],[{"header":{"parameterUnit":"m.s-1","parameterCategory":2,"la1":30.2991,"la2":30.254,"lo1":-89.0895,"lo2":-89.0444,"dy":0.0017,"dx":0.0017,"nx":28,"ny":28,"refTime":"2025-06-11T21:00:00:Z","depth":"4","parameterNumber":2,"parameterNumberName":"U-component_of_CURRENTS"},"data":[0,0,0,0,0,0,0,0,0,0,0,0,0,0,0,0,0,0,0,0,0,0,0,0,0,0,0,0,0,0,0,0,0,0,0,0,0,0,0,0,0,0,0,0,0,0,0,0,0,0,0,0,0,0,0,0,0,0,0.0936,0.0937,0,0.0973,0.0973,0.0973,0.0992,0.0993,0.0993,0.0994,0.1132,0.1135,0.1138,0,0,0,0,0,0,0,0,0,0,0,0,0,0.0863,0.0864,0.0936,0.0937,0.0938,0.0973,0.0973,0.0973,0.0992,0.0993,0.0994,0.0994,0.1131,0.1135,0.1138,0,0,0,0,0,0,0,0,0,0,0,0,0,0.089,0.0864,0.0936,0.0958,0.0961,0.0973,0.0973,0.0973,0.0992,0.0993,0.0994,0.0995,0.113,0.1134,0.1139,0.1144,0,0,0.1153,0.1154,0,0,0,0,0,0,0,0,0.0888,0.0891,0.0954,0.0957,0.096,0.0986,0.0999,0.1038,0.0991,0.0972,0.0994,0.0995,0.1097,0.1104,0.1096,0.1151,0.1157,0.1153,0.1156,0.1158,0.1159,0,0,0,0,0,0,0,0.0886,0.089,0.0943,0.0955,0.0959,0.0961,0.0965,0.1005,0.1023,0.0973,0.0977,0.0993,0.1099,0.1091,0.11,0.1159,0.1153,0.1157,0.116,0.1161,0.1314,0.1315,0,0,0,0,0,0,0.0897,0.0888,0.0942,0.0945,0.0935,0.0961,0.0966,0.097,0.1021,0.1031,0.0992,0.0994,0.1083,0.1095,0.1105,0.1226,0.1158,0.1162,0.1164,0.1312,0.1314,0.1315,0,0,0,0,0,0,0.0895,0.0901,0.094,0.0924,0.0931,0.0963,0.0967,0.097,0.1003,0.1036,0.1046,0.1027,0.1085,0.1099,0.1172,0.1228,0.1164,0.1168,0.1311,0.1313,0.1315,0.1397,0,0,0,0,0,0,0.0893,0.09,0.0918,0.0925,0.0932,0.0973,0.0967,0.0971,0.1013,0.1017,0.1069,0.108,0.1087,0.1165,0.1176,0.1233,0.1171,0.1309,0.1312,0.1314,0.1393,0.1402,0.141,0,0,0,0,0,0.089,0.09,0.0918,0.0927,0.0952,0.0975,0.0978,0.0999,0.1015,0.1032,0.107,0.108,0.1189,0.117,0.1183,0.1242,0.1308,0.1311,0.1314,0.1389,0.14,0.1409,0,0,0,0,0,0,0.087,0.0904,0.0924,0.0944,0.0976,0.0982,0.1001,0.1022,0.1061,0.1077,0.1102,0.1116,0.1198,0.1203,0.1182,0.1289,0.1249,0.1255,0.1302,0.1312,0.132,0.1282,0.1175,0,0,0,0,0,0.0879,0.0902,0.0934,0.0955,0.0971,0.0996,0.1015,0.1035,0.1066,0.1084,0.1122,0.1164,0.1211,0.125,0.128,0.1348,0.1343,0.1391,0.1399,0.1406,0.1381,0.1447,0.1459,0.1325,0.1325,0.1325,0,0,0.0876,0.0902,0.0915,0.0955,0.0974,0.1004,0.1008,0.1047,0.1084,0.1097,0.1162,0.1199,0.1233,0.1301,0.1339,0.1324,0.1441,0.141,0.1417,0.1387,0.1452,0.1465,0.1476,0.1328,0.1327,0.1327,0,0,0.0874,0.0907,0.0925,0.0957,0.101,0.103,0.1055,0.1091,0.1121,0.1188,0.1207,0.1274,0.1343,0.1375,0.1402,0.1476,0.1479,0.1498,0.1523,0.1589,0.1601,0.1611,0.1618,0.1628,0.1509,0.1509,0.1509,0,0.0876,0.0901,0.0935,0.0964,0.0998,0.1049,0.108,0.1115,0.1176,0.1212,0.1223,0.1334,0.1373,0.1457,0.1475,0.1498,0.1511,0.1489,0.1602,0.1611,0.162,0.1625,0.1635,0.1513,0.1513,0.1513,0.1512,0,0.0876,0.0917,0.093,0.0988,0.1029,0.1066,0.1126,0.1179,0.1234,0.1272,0.1371,0.1417,0.1489,0.1517,0.1519,0.1608,0.1588,0.1604,0.1578,0.1639,0.1639,0.1648,0.152,0.1518,0.1517,0.1516,0,0,0.0829,0.0914,0.0925,0.0967,0.105,0.1082,0.1158,0.1234,0.1298,0.1367,0.1445,0.1523,0.1562,0.159,0.1623,0.1661,0.1741,0.1656,0.1658,0.1663,0.1851,0.1777,0.1778,0.1792,0.1794,0.1796,0.1825,0,0.0825,0.0881,0.093,0.1003,0.1039,0.112,0.1187,0.1272,0.1351,0.144,0.1509,0.1602,0.1592,0.1655,0.1694,0.1734,0.1768,0.1728,0.1787,0.1787,0.1717,0.1788,0.1803,0.1831,0.1833,0.1835,0.1836,0,0.0804,0.0855,0.0914,0.1028,0.1052,0.1109,0.1237,0.1311,0.1441,0.1507,0.1606,0.1669,0.1756,0.1743,0.1828,0.1808,0.1827,0.1834,0.1837,0.1736,0.173,0.1758,0.1851,0.185,0.1849,0.1848,0.1847,0,0.0748,0.0846,0.0898,0.0933,0.106,0.1117,0.1202,0.1332,0.1411,0.157,0.1648,0.1752,0.1837,0.1874,0.1911,0.189,0.1974,0.1965,0.19,0.1893,0.1913,0.1901,0.2015,0.2015,0.2015,0.2015,0.2014,0,0.0715,0.0761,0.0882,0.0912,0.0997,0.1104,0.1217,0.1313,0.1462,0.1556,0.1694,0.1773,0.1878,0.1947,0.1944,0.195,0.2025,0.1895,0.1908,0.1944,0.1937,0.1918,0.1907,0.2016,0.2015,0.2015,0.2015,0,0.0638,0.0713,0.0778,0.0917,0.0971,0.1036,0.1219,0.1294,0.1457,0.1587,0.1651,0.1819,0.1916,0.1985,0.2054,0.2003,0.2011,0.1994,0.2006,0.202,0.1861,0.1854,0.1907,0.1905,0.1903,0.1901,0.19,0,0.0596,0.0619,0.0764,0.081,0.0876,0.1002,0.1084,0.1267,0.1351,0.1588,0.1629,0.1803,0.1897,0.1925,0.2001,0.2018,0.2,0.198,0.1916,0.1849,0.1856,0.1851,0.1846,0.1897,0.1897,0.1896,0.1896,0,0.0511,0.0565,0.0624,0.0724,0.0809,0.0915,0.1053,0.1108,0.1318,0.147,0.1594,0.1685,0.1798,0.1863,0.1918,0.1915,0.1979,0.196,0.1962,0.1902,0.1838,0.1846,0.1843,0.189,0.1891,0.1891,0.1892,0,0.044,0.0456,0.0541,0.0627,0.0722,0.0806,0.0901,0.1026,0.1142,0.1403,0.1428,0.1618,0.1763,0.181,0.1843,0.1866,0.1828,0.1752,0.1764,0.1772,0.1723,0.1622,0.1617,0,0,0,0,0,0.0375,0.0394,0.0449,0.0545,0.0634,0.0709,0.0867,0.0967,0.1164,0.1211,0.133,0.1433,0.1553,0.1643,0.164,0.1773,0.1818,0.1762,0.173,0.1855,0.1862,0.182,0,0,0,0,0,0,0.033,0.0368,0.0412,0.0461,0.0515,0.0617,0.0714,0.0849,0.0903,0.1104,0.1174,0.1335,0.1462,0.1531,0.1604,0.1633,0.1584,0.1879,0.1875,0.1851,0.1858,0.1863,0.1823,0,0,0,0,0]},{"header":{"parameterUnit":"m.s-1","parameterCategory":2,"la1":30.2991,"la2":30.254,"lo1":-89.0895,"lo2":-89.0444,"dy":0.0017,"dx":0.0017,"nx":28,"ny":28,"refTime":"2025-06-11T21:00:00:Z","depth":"4","parameterNumber":3,"parameterNumberName":"V-component_of_CURRENTS"},"data":[0,0,0,0,0,0,0,0,0,0,0,0,0,0,0,0,0,0,0,0,0,0,0,0,0,0,0,0,0,0,0,0,0,0,0,0,0,0,0,0,0,0,0,0,0,0,0,0,0,0,0,0,0,0,0,0,0,0,0.0131,0.0131,0,0.0118,0.0118,0.0118,0.0101,0.0101,0.01,0.01,0.0023,0.0021,0.0019,0,0,0,0,0,0,0,0,0,0,0,0,0,0.0076,0.0078,0.0131,0.0131,0.0131,0.0118,0.0118,0.0118,0.0101,0.0101,0.01,0.01,0.0023,0.0021,0.0019,0,0,0,0,0,0,0,0,0,0,0,0,0,0.0086,0.0078,0.0131,0.0121,0.0119,0.0118,0.0118,0.0118,0.0101,0.0101,0.01,0.01,0.0024,0.0021,0.0019,0.0012,0,0,0.0011,0.001,0,0,0,0,0,0,0,0,0.0085,0.0088,0.0122,0.0121,0.012,0.011,0.007,0.0079,0.0101,0.0108,0.01,0.01,0.0046,0.0042,0.0042,0.0008,0.0005,0.001,0.0009,0.0008,0.0007,0,0,0,0,0,0,0,0.0085,0.0088,0.0126,0.0122,0.0121,0.0094,0.0096,0.0072,0.0079,0.0108,0.0106,0.0105,0.0045,0.0044,0.004,0.0003,0.0011,0.0008,0.0007,0.0005,-0.0056,-0.0056,0,0,0,0,0,0,0.009,0.0088,0.0127,0.0126,0.0101,0.0096,0.0097,0.0114,0.0081,0.0076,0.0105,0.0104,0.0049,0.0043,0.0037,0.0024,0.0008,0.0005,0.0004,-0.0056,-0.0056,-0.0056,0,0,0,0,0,0,0.0089,0.0095,0.0127,0.0105,0.0107,0.0098,0.0116,0.0114,0.011,0.0079,0.0073,0.0102,0.0049,0.004,0.0013,0.0021,0.0004,0.0002,-0.0056,-0.0056,-0.0056,-0.0001,0,0,0,0,0,0,0.0088,0.0095,0.0106,0.0106,0.0109,0.0135,0.0117,0.0114,0.0109,0.0108,0.0075,0.0067,0.0048,0.0017,0.001,0.0017,-0.0,-0.0055,-0.0056,-0.0056,-0.0003,0.0001,0.0004,0,0,0,0,0,0.0087,0.0118,0.0107,0.0112,0.0127,0.0136,0.0135,0.0125,0.011,0.0117,0.0086,0.0068,0.0012,0.0015,0.0007,0.0013,-0.0055,-0.0056,-0.0056,-0.0004,0.0,0.0004,0,0,0,0,0,0,0.0106,0.0119,0.0108,0.0142,0.0137,0.0133,0.0143,0.0126,0.0109,0.0103,0.0066,0.0058,0.0037,0.0014,0.0018,-0.0006,-0.0024,-0.0026,0.0017,0.0021,0.0025,0.0037,-0.0003,0,0,0,0,0,0.0113,0.0137,0.0135,0.0159,0.0162,0.0147,0.0147,0.0139,0.0124,0.0116,0.0094,0.0063,0.0032,0.0018,-0.0006,-0.002,-0.0066,-0.0023,-0.0019,-0.0016,-0.0012,-0.0103,-0.0108,-0.0056,-0.0056,-0.0056,0,0,0.0128,0.0135,0.0149,0.0163,0.0161,0.0181,0.0147,0.0156,0.0164,0.0109,0.0115,0.0074,0.0029,0.0016,0.0005,-0.0003,-0.005,-0.0016,-0.0013,-0.0011,-0.0104,-0.0109,-0.0114,-0.0056,-0.0056,-0.0056,0,0,0.0175,0.0176,0.0212,0.0213,0.0212,0.0205,0.0206,0.0202,0.0192,0.0183,0.0142,0.0099,0.0074,0.0037,0.0014,0.0017,-0.0031,0.0015,0.0044,-0.0044,-0.0049,-0.0054,-0.0094,-0.0104,0.0019,0.0019,0.0019,0,0.0188,0.0232,0.0221,0.0252,0.0254,0.0219,0.0248,0.024,0.0224,0.0204,0.0195,0.0115,0.0082,0.0035,0.0045,0.0025,-0.0019,0.0035,-0.004,-0.0046,-0.0053,-0.0093,-0.0104,0.0021,0.0021,0.0021,0.0021,0,0.0262,0.0288,0.0309,0.0335,0.0337,0.0353,0.0337,0.0329,0.0303,0.028,0.0229,0.0171,0.0116,0.0103,0.008,0.0022,0.001,-0.0027,-0.0049,-0.0055,-0.0096,-0.0109,0.0025,0.0024,0.0023,0.0023,0,0,0.031,0.0353,0.0359,0.0368,0.0375,0.038,0.0391,0.0375,0.0357,0.0325,0.0287,0.0233,0.018,0.0149,0.0097,0.0033,-0.0036,-0.0002,-0.0008,-0.0038,-0.02,-0.0171,-0.0183,-0.0094,-0.0096,-0.0098,-0.0202,0,0.0363,0.0429,0.0437,0.0477,0.0499,0.0466,0.0474,0.0448,0.0408,0.0366,0.028,0.0232,0.0203,0.0163,0.0095,-0.0011,-0.007,-0.0002,-0.0194,-0.0198,-0.0171,-0.0197,-0.0106,-0.0212,-0.0215,-0.0217,-0.0219,0,0.0429,0.0457,0.0514,0.0522,0.0529,0.055,0.0517,0.0519,0.0451,0.0413,0.0339,0.0268,0.0177,0.0142,-0.0032,0.0012,-0.0081,-0.016,-0.0167,-0.017,-0.0194,-0.0213,-0.0242,-0.024,-0.0238,-0.0237,-0.0235,0,0.0447,0.0502,0.054,0.0548,0.0564,0.0571,0.0574,0.0531,0.0521,0.0434,0.0403,0.0276,0.021,0.0066,-0.0068,-0.0067,-0.026,-0.0292,-0.0351,-0.0348,-0.0366,-0.036,-0.0426,-0.0426,-0.0426,-0.0426,-0.0425,0,0.0482,0.0508,0.0554,0.057,0.0597,0.06,0.0609,0.0583,0.0548,0.0533,0.0428,0.0378,0.0183,0.0058,-0.0073,-0.0233,-0.0271,-0.0347,-0.0385,-0.0335,-0.0325,-0.0374,-0.0366,-0.043,-0.0429,-0.0428,-0.0427,0,0.048,0.0518,0.0557,0.0594,0.0608,0.0623,0.0655,0.0658,0.0622,0.0593,0.0569,0.0439,0.0278,0.0101,-0.0133,-0.0227,-0.0395,-0.0442,-0.0338,-0.0368,-0.0421,-0.041,-0.0534,-0.0534,-0.0534,-0.0534,-0.0534,0,0.0478,0.0504,0.0569,0.0599,0.062,0.0656,0.0685,0.0687,0.0695,0.0636,0.0622,0.0474,0.037,0.0082,-0.0113,-0.0367,-0.04,-0.0478,-0.0481,-0.0413,-0.0438,-0.0426,-0.0415,-0.0534,-0.0535,-0.0535,-0.0535,0,0.0461,0.0496,0.0533,0.0608,0.0657,0.07,0.0746,0.0757,0.0756,0.073,0.0656,0.0502,0.0325,0.0095,-0.0094,-0.0278,-0.0429,-0.048,-0.0481,-0.0485,-0.0416,-0.0437,-0.0426,-0.0535,-0.0535,-0.0535,-0.0535,0,0.0449,0.0477,0.0552,0.0605,0.0674,0.0729,0.075,0.0772,0.078,0.073,0.0707,0.0519,0.0407,0.0141,-0.0035,-0.0211,-0.0267,-0.0324,-0.0335,-0.0337,-0.0249,-0.0129,-0.0197,0,0,0,0,0,0.0437,0.0485,0.0544,0.0617,0.0686,0.0723,0.0785,0.0804,0.0811,0.0772,0.0744,0.0584,0.0315,0.0193,0.0019,-0.0057,-0.0308,-0.0266,-0.0381,-0.0537,-0.0536,-0.0464,0,0,0,0,0,0,0.0441,0.0506,0.0544,0.0619,0.066,0.0738,0.0777,0.0783,0.0762,0.0744,0.0605,0.054,0.0276,0.0409,0.0012,-0.0043,-0.0137,-0.0393,-0.0397,-0.0537,-0.0537,-0.0536,-0.0461,0,0,0,0,0]}]]